[[{"header":{"parameterUnit":"m.s-1","parameterCategory":1,"la1":30.2991,"la2":30.254,"lo1":-89.0895,"lo2":-89.0444,"dy":0.0017,"dx":0.0017,"nx":28,"ny":28,"refTime":"2023-10-18T03:00:00:Z","depth":0,"parameterNumber":2,"parameterNumberName":"U-component_of_WINDS"},"data":[0,0,0,0,0,0,0,0,0,0,0,0,0,0,0,0,0,0,0,0,0,0,0,0,0,0,0,0,0,0,0,0,0,0,0,0,0,0,0,0,0,0,0,0,0,0,0,0,0,0,0,0,0,0,0,0,0,0,2.6298,2.6298,0,2.6233,2.6232,2.6231,2.6098,2.6095,2.6093,2.609,2.6025,2.6026,2.6026,0,0,0,0,0,0,0,0,0,0,0,0,0,2.6307,2.6308,2.6298,2.6298,2.6297,2.6233,2.6232,2.6231,2.6099,2.6095,2.6092,2.6089,2.6025,2.6025,2.6026,0,0,0,0,0,0,0,0,0,0,0,0,0,2.6279,2.6308,2.6299,2.6223,2.6215,2.6233,2.6232,2.6231,2.6099,2.6095,2.6091,2.6088,2.6024,2.6025,2.6027,2.6113,0,0,2.603,2.603,0,0,0,0,0,0,0,0,2.6281,2.6279,2.6235,2.6228,2.622,2.617,2.6211,2.6192,2.61,2.6144,2.609,2.6086,2.6076,2.6073,2.6069,2.611,2.6107,2.603,2.6031,2.6031,2.6031,0,0,0,0,0,0,0,2.6283,2.6281,2.6272,2.6234,2.6225,2.6192,2.6183,2.6207,2.6133,2.6139,2.613,2.6124,2.6071,2.6069,2.6067,2.6106,2.603,2.6031,2.6032,2.6032,2.621,2.6214,0,0,0,0,0,0,2.6296,2.6283,2.6275,2.627,2.6241,2.6195,2.6185,2.619,2.6132,2.612,2.6127,2.6118,2.6069,2.6066,2.6064,2.6159,2.6031,2.6032,2.6033,2.6206,2.6211,2.6216,0,0,0,0,0,0,2.6297,2.6296,2.6277,2.6274,2.6269,2.6199,2.6205,2.6191,2.6188,2.6123,2.6109,2.6138,2.6066,2.6063,2.6101,2.6155,2.6033,2.6034,2.6201,2.6208,2.6213,2.6351,0,0,0,0,0,0,2.6297,2.6297,2.633,2.6276,2.627,2.6316,2.6208,2.6192,2.619,2.6177,2.613,2.6118,2.6062,2.61,2.6102,2.6154,2.6035,2.6196,2.6204,2.6211,2.6341,2.6361,2.6378,0,0,0,0,0,2.6298,2.6373,2.6333,2.6332,2.6309,2.6319,2.6316,2.625,2.6195,2.6226,2.6184,2.6119,2.6149,2.6105,2.6106,2.6159,2.6193,2.6202,2.6211,2.6333,2.6357,2.6377,0,0,0,0,0,0,2.6437,2.6364,2.6319,2.6378,2.6356,2.6297,2.6335,2.6278,2.6271,2.6259,2.6178,2.6168,2.6217,2.6192,2.6145,2.6238,2.616,2.617,2.6252,2.6275,2.6293,2.6297,2.6035,0,0,0,0,0,2.6474,2.6488,2.6424,2.6483,2.6473,2.6407,2.6409,2.6359,2.6333,2.6323,2.6284,2.6261,2.6264,2.6268,2.6268,2.6337,2.6323,2.6374,2.6392,2.6408,2.6417,2.6448,2.6468,2.6246,2.6246,2.6245,0,0,2.6551,2.6513,2.6528,2.6509,2.6486,2.6501,2.6399,2.6421,2.6431,2.6326,2.6359,2.633,2.6298,2.6351,2.6373,2.6332,2.6475,2.6419,2.6432,2.6433,2.6459,2.648,2.6499,2.6252,2.6251,2.625,0,0,2.67,2.6674,2.6717,2.6696,2.6661,2.6615,2.6626,2.6575,2.6551,2.6582,2.6502,2.6514,2.6523,2.6502,2.6493,2.6631,2.6569,2.6633,2.6728,2.6759,2.6777,2.6792,2.6838,2.6856,2.6643,2.6643,2.6643,0,2.68,2.682,2.6748,2.6773,2.6766,2.667,2.6713,2.6695,2.6664,2.666,2.6615,2.6621,2.6594,2.6639,2.6672,2.6669,2.6677,2.6638,2.678,2.6795,2.6808,2.6851,2.6869,2.6651,2.665,2.6649,2.6648,0,2.6944,2.6959,2.6999,2.6968,2.6966,2.7001,2.6932,2.6938,2.6888,2.6847,2.6879,2.6842,2.6831,2.6839,2.6792,2.6876,2.6852,2.6795,2.6715,2.6838,2.6877,2.6893,2.6662,2.6659,2.6657,2.6655,0,0,2.7179,2.7105,2.7121,2.7104,2.7057,2.7067,2.7097,2.7084,2.709,2.7071,2.7092,2.71,2.7045,2.7035,2.6985,2.7013,2.712,2.6951,2.6949,2.6982,2.7207,2.7249,2.727,2.7079,2.7082,2.7084,2.7209,0,2.7315,2.736,2.7294,2.7353,2.7364,2.7272,2.7297,2.7271,2.7233,2.7236,2.7194,2.72,2.7129,2.7122,2.7145,2.7102,2.7164,2.7092,2.7096,2.7097,2.7105,2.729,2.7335,2.7454,2.7224,2.7227,2.7229,0,2.748,2.7466,2.7527,2.7473,2.7475,2.7499,2.748,2.7486,2.7453,2.7423,2.7411,2.7349,2.7372,2.7296,2.7325,2.7278,2.7276,2.7254,2.7257,2.7254,2.7169,2.729,2.7491,2.7509,2.7252,2.725,2.7249,0,2.7642,2.7639,2.7673,2.7662,2.7601,2.7619,2.7595,2.7558,2.7554,2.7538,2.7534,2.7523,2.7516,2.7507,2.7444,2.7394,2.748,2.7399,2.7454,2.7456,2.7476,2.7475,2.7678,2.7478,2.7478,2.7478,2.7477,0,2.78,2.784,2.7744,2.7766,2.7806,2.773,2.7772,2.7738,2.7706,2.7718,2.7638,2.7651,2.7568,2.7571,2.7522,2.7552,2.755,2.7526,2.7512,2.7531,2.7534,2.7528,2.7517,2.7482,2.7481,2.7481,2.748,0,2.7987,2.7925,2.7956,2.7895,2.788,2.7913,2.786,2.7876,2.7832,2.7848,2.7848,2.7779,2.7778,2.7714,2.7702,2.7668,2.7718,2.769,2.7729,2.7719,2.7777,2.7772,2.7981,2.8003,2.7793,2.7795,2.7797,0,2.8091,2.8119,2.806,2.8061,2.804,2.8045,2.8039,2.7964,2.7962,2.7925,2.7945,2.7938,2.7928,2.7932,2.788,2.7869,2.7838,2.7913,2.7836,2.7854,2.7836,2.7835,2.7836,2.7928,2.7931,2.7933,2.7935,0,2.8281,2.8248,2.8243,2.8227,2.8222,2.8206,2.8185,2.8191,2.8108,2.8109,2.8107,2.8099,2.8084,2.8078,2.8056,2.803,2.7969,2.7959,2.7971,2.7991,2.8011,2.7998,2.777,2.7955,2.7953,2.7951,2.795,2.7949,2.8427,2.8446,2.8407,2.8403,2.8379,2.836,2.8371,2.8327,2.8324,2.8305,2.8261,2.8266,2.8229,2.8194,2.8173,2.8174,2.8137,2.8155,2.8159,2.8164,2.8174,2.8012,2.8171,2.817,2.8169,2.8169,2.8168,0,2.861,2.858,2.8577,2.8548,2.8545,2.8487,2.8459,2.846,2.8465,2.8436,2.8427,2.8423,2.8415,2.8362,2.8347,2.8359,2.833,2.8357,2.8355,2.8349,2.821,2.82,2.8381,2.8381,2.838,2.838,2.838,2.838,2.8705,2.8733,2.8695,2.871,2.8678,2.8681,2.867,2.8652,2.8628,2.8626,2.8619,2.8584,2.8544,2.8526,2.8516,2.85,2.8497,2.8534,2.8509,2.838,2.8359,2.834,2.833,2.8535,2.8535,2.8647,2.8649,2.8649]},{"header":{"parameterUnit":"m.s-1","parameterCategory":1,"la1":30.2991,"la2":30.254,"lo1":-89.0895,"lo2":-89.0444,"dy":0.0017,"dx":0.0017,"nx":28,"ny":28,"refTime":"2023-10-18T03:00:00:Z","depth":0,"parameterNumber":3,"parameterNumberName":"V-component_of_WINDS"},"data":[0,0,0,0,0,0,0,0,0,0,0,0,0,0,0,0,0,0,0,0,0,0,0,0,0,0,0,0,0,0,0,0,0,0,0,0,0,0,0,0,0,0,0,0,0,0,0,0,0,0,0,0,0,0,0,0,0,0,3.6132,3.6133,0,3.622,3.622,3.6221,3.6214,3.6213,3.6212,3.621,3.6293,3.6296,3.6299,0,0,0,0,0,0,0,0,0,0,0,0,0,3.595,3.5954,3.6132,3.6133,3.6134,3.6219,3.6221,3.6222,3.6214,3.6213,3.6211,3.621,3.6291,3.6295,3.63,0,0,0,0,0,0,0,0,0,0,0,0,0,3.6032,3.5955,3.6132,3.6141,3.6143,3.6219,3.6221,3.6222,3.6215,3.6213,3.6211,3.6209,3.629,3.6295,3.63,3.6371,0,0,3.6316,3.6318,0,0,0,0,0,0,0,0,3.6028,3.6039,3.6138,3.614,3.6142,3.6204,3.6187,3.6272,3.6215,3.6187,3.621,3.6208,3.6264,3.6271,3.6292,3.6375,3.6378,3.6316,3.6319,3.6321,3.6323,0,0,0,0,0,0,0,3.6022,3.6035,3.6166,3.614,3.6142,3.6138,3.6147,3.6203,3.6235,3.6189,3.6189,3.62,3.6265,3.6287,3.6294,3.6379,3.6316,3.6321,3.6324,3.6326,3.6522,3.6524,0,0,0,0,0,0,3.6015,3.6031,3.6164,3.6169,3.6079,3.6143,3.6154,3.6186,3.6235,3.624,3.6202,3.6199,3.6279,3.6288,3.6297,3.6381,3.6321,3.6326,3.6329,3.652,3.6523,3.6525,0,0,0,0,0,0,3.6012,3.6027,3.616,3.61,3.6116,3.6148,3.6185,3.6189,3.6211,3.6244,3.6249,3.6219,3.6278,3.6289,3.6352,3.6384,3.6329,3.6333,3.6518,3.6521,3.6524,3.6551,0,0,0,0,0,0,3.6006,3.6026,3.6055,3.6101,3.612,3.6217,3.6187,3.6192,3.6221,3.6219,3.6261,3.6266,3.6277,3.6345,3.6358,3.639,3.6337,3.6515,3.6519,3.6523,3.6548,3.6555,3.6562,0,0,0,0,0,3.6,3.6058,3.6057,3.6073,3.6157,3.6219,3.6229,3.6243,3.6223,3.6251,3.6272,3.6265,3.6379,3.6351,3.6366,3.64,3.6513,3.6518,3.6523,3.6545,3.6554,3.6561,0,0,0,0,0,0,3.6013,3.6064,3.6063,3.6139,3.6175,3.6218,3.6253,3.6252,3.6293,3.6289,3.6301,3.6311,3.6374,3.6393,3.6362,3.647,3.6443,3.6451,3.6455,3.6464,3.647,3.6463,3.6341,0,0,0,0,0,3.6025,3.6074,3.6115,3.6177,3.6196,3.6222,3.6249,3.6256,3.6293,3.6307,3.6333,3.6367,3.641,3.6438,3.648,3.6551,3.6559,3.6581,3.6588,3.6594,3.66,3.6637,3.6646,3.6541,3.6541,3.6541,0,0,3.605,3.6084,3.6113,3.6181,3.6209,3.6256,3.6234,3.6285,3.6319,3.6314,3.6376,3.6396,3.6434,3.6501,3.6532,3.6519,3.6631,3.66,3.6604,3.6607,3.6643,3.6652,3.6661,3.6544,3.6544,3.6543,0,0,3.6119,3.615,3.6205,3.6235,3.628,3.6297,3.631,3.6353,3.6367,3.6429,3.6426,3.6465,3.654,3.6567,3.6591,3.6669,3.6663,3.6682,3.6717,3.6753,3.6761,3.6768,3.6794,3.6804,3.6688,3.6688,3.6688,0,3.6143,3.6216,3.6233,3.6285,3.6313,3.6313,3.6367,3.6394,3.6449,3.6467,3.6453,3.6546,3.6572,3.6644,3.6664,3.6684,3.6696,3.6677,3.6759,3.6767,3.6774,3.6798,3.6808,3.669,3.669,3.669,3.669,0,3.6242,3.6293,3.6332,3.6387,3.642,3.6473,3.6494,3.6525,3.6529,3.6547,3.6609,3.664,3.6688,3.6706,3.671,3.6778,3.6769,3.6757,3.673,3.6785,3.6809,3.6819,3.6693,3.6692,3.6692,3.6691,0,0,3.6321,3.6386,3.6399,3.6424,3.6473,3.6511,3.6562,3.6611,3.6636,3.6674,3.6715,3.6778,3.6768,3.6794,3.6801,3.6833,3.689,3.6817,3.6818,3.6828,3.6965,3.6972,3.6983,3.6887,3.6889,3.6891,3.6961,0,3.6393,3.6487,3.6503,3.6584,3.6629,3.663,3.6674,3.6707,3.6725,3.6764,3.6782,3.6826,3.681,3.6826,3.6857,3.6877,3.6918,3.6872,3.6923,3.6925,3.6912,3.6996,3.7004,3.7069,3.6971,3.6972,3.6973,0,3.649,3.6532,3.6619,3.6661,3.668,3.672,3.6765,3.6804,3.6841,3.6851,3.6881,3.6884,3.6934,3.6906,3.6974,3.6942,3.6964,3.6977,3.6979,3.6983,3.6951,3.7,3.709,3.7099,3.6988,3.6987,3.6986,0,3.6536,3.6615,3.6676,3.6697,3.6749,3.6776,3.6798,3.6834,3.6861,3.69,3.6917,3.6961,3.6983,3.7015,3.7029,3.7008,3.7095,3.7069,3.7102,3.7102,3.7119,3.7118,3.7212,3.7137,3.7136,3.7136,3.7136,0,3.6614,3.6666,3.6697,3.6735,3.6792,3.6809,3.6864,3.6885,3.6917,3.6956,3.6959,3.6995,3.7012,3.705,3.706,3.7113,3.7124,3.7132,3.7133,3.7131,3.7129,3.7143,3.7138,3.7139,3.7138,3.7138,3.7137,0,3.6674,3.6698,3.6765,3.6809,3.6821,3.6861,3.6896,3.6931,3.6949,3.6999,3.7011,3.7037,3.7082,3.71,3.7154,3.7161,3.7222,3.7221,3.721,3.721,3.7242,3.7238,3.7347,3.7362,3.7278,3.7279,3.728,0,3.6722,3.6762,3.6811,3.6839,3.6862,3.6907,3.6936,3.6953,3.6982,3.7027,3.7056,3.7101,3.7138,3.7209,3.7232,3.7273,3.7271,3.7307,3.7277,3.7272,3.7269,3.7266,3.7269,3.7312,3.7313,3.7313,3.7314,0,3.6802,3.6812,3.6855,3.6902,3.6937,3.6974,3.701,3.7031,3.7054,3.7086,3.7133,3.7162,3.7218,3.7262,3.7304,3.7324,3.7322,3.7323,3.7333,3.7329,3.732,3.7324,3.7223,3.732,3.732,3.7319,3.7319,3.7319,3.6856,3.6891,3.6931,3.6978,3.7008,3.7041,3.7076,3.7098,3.7139,3.7188,3.7195,3.7245,3.7278,3.7335,3.7357,3.7394,3.7384,3.7398,3.7402,3.7404,3.7406,3.7317,3.7402,3.7402,3.7401,3.7401,3.7401,0,3.6935,3.6961,3.7004,3.7055,3.7092,3.709,3.7129,3.7159,3.7204,3.7237,3.7274,3.7327,3.7369,3.7395,3.7437,3.7462,3.7462,3.7472,3.7469,3.7473,3.7413,3.74,3.7472,3.7472,3.7472,3.7472,3.7472,3.7472,3.698,3.7039,3.7054,3.7126,3.7151,3.7202,3.7224,3.7254,3.7281,3.7341,3.7377,3.7395,3.7424,3.7468,3.7506,3.7513,3.7527,3.7538,3.7543,3.7485,3.7478,3.7471,3.7458,3.7541,3.7541,3.76,3.76,3.7601]}]]